Location: B?lite?ti
(46.2833°N, 22.7333°E)
Time: 04:13:58
(UTC+00:00)

ATLAS 5 CENTAUR R/B - Pass Details

Date: 24 January 2021
Orbit: 511 x 1147 km, 63.3° (Epoch: 16 February)

Event Time Altitude Azimuth Distance (km) Brightness Sun altitude
Rises 17:26:23 0° 290° (WNW) 2,802 6.0 -21.3°
Reaches altitude 10° 17:29:48 10° 320° (NW) 2,016 4.6 -21.9°
Maximum altitude 17:31:49 13° 347° (NNW) 1,917 4.1 -22.2°
Enters shadow 17:33:36 11° 9° (N) 2,111 4.1 -22.5°
